Volver al catálogo

STARLINK-5817

ActivoComunicacionesVLEO
NORAD 55779·PAYLOAD·🇺🇸 United States

Lanzado Mar 3, 2023 desde Vandenberg Space Force Base

Loading…

Próximos Pases (próximas 24 horas)

TLE

ActualizadoSource: CelesTrak SupGP

Época: Sep 15, 2026, 02:23 UTC

1 55779C 23028AQ  26258.09979167 -.00044816  00000+0 -37553-2 0  2586
2 55779  69.9997  86.6859 0002717 278.0313  55.5935 14.98358881    15

Sigue STARLINK-5817 en tiempo real con AllMySat

Download on the App Store